Weather History for CWGB - September, 2013

Change the Weather History Date:

Monday, September 30, 2013

  Actual Average Record
Temperature  
Mean Temperature 54 °F -  
Max Temperature 59 °F - - ()
Min Temperature 49 °F - - ()
Degree Days  
Heating Degree Days 11    
Growing Degree Days 4 (Base 50)    
Moisture  
Dew Point 44 °F    
Average Humidity 73    
Maximum Humidity 83    
Minimum Humidity 61    
Precipitation  
Precipitation 0.04 in - - ()
Sea Level Pressure  
Sea Level Pressure 29.50 in    
Wind  
Wind Speed 8 mph ()    
Max Wind Speed 20 mph    
Max Gust Speed 24 mph    
T = Trace of Precipitation, MM = Missing Value Source: Averaged Metar Reports

Daily Weather History Graph

Daily Weather History Graph

Search for Another Location

Airport or City:

Trip Planner

Search our weather history database for the weather conditions in past years. The results will help you decide how hot, cold, wet, or windy it might be!

Date:

Astronomy

Sep. 30, 2013 Rise Set
Actual Time 7:15 AM PDT 6:56 PM PDT
Civil Twilight 6:43 AM PDT 7:28 PM PDT
Nautical Twilight 6:06 AM PDT 8:05 PM PDT
Astronomical Twilight 5:28 AM PDT 8:43 PM PDT
Moon 2:38 AM PDT (9/30) 4:47 PM PDT (9/30)
Length of Visible Light 12h 44m
Length of Day
11h 41m
Waning Crescent, 18% of the Moon is Illuminated
Sep 30
Waning Crescent
Oct 4
New
Oct 11
First Quarter
Oct 18
Full
Oct 26
Last Quarter

Hourly Weather History & Observations

Time (PDT) Temp. Dew Point Humidity Pressure Visibility Wind Dir Wind Speed Gust Speed Precip Events Conditions
12:00 AM 50.2 °F 43.0 °F 76% 29.13 in - SE 15.0 mph 21.9 mph 0.02 in   Unknown
1:00 AM 50.4 °F 43.3 °F 77% 29.17 in - SE 11.5 mph 18.4 mph N/A   Unknown
2:00 AM 50.5 °F 41.7 °F 72% 29.20 in - SSE 8.1 mph - 0.01 in   Unknown
3:00 AM 50.9 °F 42.3 °F 72% 29.23 in - SE 9.2 mph - 0.01 in   Unknown
4:00 AM 50.5 °F 41.9 °F 72% 29.27 in - South 5.8 mph - N/A   Unknown
5:00 AM 52 °F 43 °F 61% 29.29 in - SSW 10.4 mph - -  
5:00 AM 51.6 °F 42.6 °F 71% 29.29 in - SSW 10.4 mph 24.2 mph 0.01 in   Unknown
6:00 AM 50.7 °F 43.5 °F 76% 29.34 in - SE 11.5 mph 18.4 mph N/A   Unknown
7:00 AM 52.2 °F 41.9 °F 68% 29.38 in - SSE 6.9 mph - N/A   Unknown
8:00 AM 51.6 °F 43.5 °F 74% 29.42 in - SE 6.9 mph - N/A   Unknown
9:00 AM 51.4 °F 44.2 °F 76% 29.45 in - SE 11.5 mph 18.4 mph N/A   Unknown
10:00 AM 51.8 °F 45.7 °F 80% 29.48 in - ESE 11.5 mph - N/A   Unknown
11:00 AM 52 °F 47 °F 78% 29.51 in - ESE 9.2 mph - -  
11:00 AM 52.2 °F 47.1 °F 83% 29.51 in - ESE 9.2 mph - 0.04 in   Unknown
12:00 PM 53.4 °F 48.2 °F 82% 29.53 in - ESE 13.8 mph - 0.05 in   Unknown
1:00 PM 54.0 °F 48.9 °F 83% 29.55 in - ESE 19.6 mph - N/A   Unknown
2:00 PM 54.7 °F 48.6 °F 80% 29.57 in - ESE 15.0 mph - N/A   Unknown
3:00 PM 58.8 °F 45.9 °F 62% 29.60 in - SSE 3.5 mph - N/A   Unknown
4:00 PM 55.6 °F 46.2 °F 71% 29.62 in - South 3.5 mph - N/A   Unknown
5:00 PM 56 °F 47 °F 63% 29.63 in - South 3.5 mph - -  
5:00 PM 56.5 °F 46.9 °F 70% 29.63 in - South 3.5 mph - 0.01 in   Unknown
6:00 PM 53.8 °F 43.2 °F 67% 29.66 in - SSE 4.6 mph - N/A   Unknown
7:00 PM 53.1 °F 42.8 °F 68% 29.67 in - SSE 5.8 mph - N/A   Unknown
8:00 PM 51.6 °F 42.3 °F 70% 29.70 in - SSE 3.5 mph - N/A   Unknown
9:00 PM 50.7 °F 42.6 °F 74% 29.73 in - SW 1.2 mph - N/A   Unknown
10:00 PM 50.7 °F 41.5 °F 71% 29.75 in - SSE 4.6 mph - N/A   Unknown
11:00 PM 50 °F 41 °F 63% 29.78 in - SSE 4.6 mph - -  
11:00 PM 49.6 °F 41.2 °F 73% 29.78 in - SSE 4.6 mph - N/A   Unknown